Weather History for KPSC - November, 2013

Change the Weather History Date:

Sunday, November 10, 2013

  Actual Average Record
Temperature  
Mean Temperature 46 °F 43 °F  
Max Temperature 54 °F 53 °F 72 °F (1989)
Min Temperature 38 °F 34 °F 23 °F (2011)
Degree Days  
Heating Degree Days 19 22  
Month to date heating degree days 201 202  
Since 1 July heating degree days 754 720  
Cooling Degree Days 0 0  
Month to date cooling degree days 0 0  
Year to date cooling degree days 995 710  
Moisture  
Dew Point 40 °F    
Average Humidity 82    
Maximum Humidity 100    
Minimum Humidity 64    
Precipitation  
Precipitation 0.00 in 0.03 in 0.32 in (1973)
Month to date precipitation 0.35 0.31  
Year to date precipitation 4.70 6.84  
Snow  
Snow 0.00 in - - ()
Snow Depth 0.00 in    
Sea Level Pressure  
Sea Level Pressure 30.19 in    
Wind  
Wind Speed 1 mph (NNW)    
Max Wind Speed 7 mph    
Max Gust Speed 9 mph    
Visibility 10 miles    
Events      
T = Trace of Precipitation, MM = Missing Value Source: NWS Daily Summary

Daily Weather History Graph

Daily Weather History Graph

Search for Another Location

Airport or City:

Trip Planner

Search our weather history database for the weather conditions in past years. The results will help you decide how hot, cold, wet, or windy it might be!

Date:

Astronomy

Nov. 10, 2013 Rise Set
Actual Time 6:51 AM PST 4:29 PM PST
Civil Twilight 6:18 AM PST 5:01 PM PST
Nautical Twilight 5:42 AM PST 5:37 PM PST
Astronomical Twilight 5:07 AM PST 6:12 PM PST
Moon 12:59 PM PST (11/10) No Moon Set
Length of Visible Light 10h 42m
Length of Day
9h 38m
First Quarter, 56% of the Moon is Illuminated
Nov 10
First Quarter
Nov 17
Full
Nov 25
Last Quarter
Dec 2
New
Dec 9
First Quarter

Hourly Weather History & Observations

Time (PST) Temp. Windchill Dew Point Humidity Pressure Visibility Wind Dir Wind Speed Gust Speed Precip Events Conditions
12:53 AM 45.0 °F - 39.9 °F 82% 30.14 in 10.0 mi Calm Calm - N/A   Overcast
1:53 AM 45.0 °F - 39.9 °F 82% 30.15 in 10.0 mi Calm Calm - N/A   Overcast
2:53 AM 45.0 °F - 41.0 °F 86% 30.16 in 10.0 mi Calm Calm - N/A   Overcast
3:53 AM 44.1 °F - 41.0 °F 89% 30.16 in 10.0 mi Calm Calm - N/A   Overcast
4:53 AM 44.1 °F - 41.0 °F 89% 30.16 in 10.0 mi Calm Calm - N/A   Scattered Clouds
5:53 AM 41.0 °F - 39.9 °F 96% 30.16 in 10.0 mi Calm Calm - N/A   Clear
6:53 AM 39.9 °F - 39.0 °F 97% 30.17 in 10.0 mi Calm Calm - N/A   Clear
7:53 AM 41.0 °F - 39.9 °F 96% 30.18 in 9.0 mi Calm Calm - N/A   Clear
8:53 AM 44.1 °F - 42.1 °F 93% 30.19 in 10.0 mi Calm Calm - N/A   Clear
9:53 AM 46.9 °F - 41.0 °F 80% 30.19 in 10.0 mi Calm Calm - N/A   Clear
10:53 AM 48.0 °F - 39.9 °F 74% 30.20 in 10.0 mi Calm Calm - N/A   Clear
11:53 AM 51.1 °F - 41.0 °F 68% 30.19 in 10.0 mi Calm Calm - N/A   Clear
12:53 PM 53.1 °F - 41.0 °F 64% 30.18 in 10.0 mi Variable 4.6 mph - N/A   Clear
1:53 PM 53.1 °F - 41.0 °F 64% 30.17 in 10.0 mi NE 3.5 mph - N/A   Clear
2:53 PM 52.0 °F - 42.1 °F 69% 30.18 in 10.0 mi North 4.6 mph - N/A   Clear
3:53 PM 50.0 °F - 43.0 °F 77% 30.18 in 10.0 mi North 4.6 mph - N/A   Clear
4:53 PM 46.9 °F - 42.1 °F 83% 30.20 in 10.0 mi NNW 4.6 mph - N/A   Clear
5:53 PM 45.0 °F 41.8 °F 39.9 °F 82% 30.21 in 10.0 mi NW 5.8 mph - N/A   Clear
6:53 PM 43.0 °F 41.3 °F 39.9 °F 89% 30.22 in 10.0 mi NNW 3.5 mph - N/A   Clear
7:53 PM 41.0 °F 38.0 °F 39.0 °F 93% 30.23 in 10.0 mi NNW 4.6 mph - N/A   Clear
8:53 PM 43.0 °F - 39.9 °F 89% 30.24 in 10.0 mi Calm Calm - N/A   Clear
9:53 PM 39.9 °F - 39.0 °F 97% 30.25 in 4.0 mi Calm Calm - N/A   Clear
10:53 PM 39.9 °F 37.8 °F 37.9 °F 93% 30.26 in 10.0 mi NW 3.5 mph - N/A   Clear
11:53 PM 41.0 °F - 39.9 °F 96% 30.27 in 10.0 mi Calm Calm - N/A   Mostly Cloudy